Location: Julian California
(33.0790°N, 116.6010°W)
Time: 01:50:37
(UTC-07:00)

Cosmos 1707 - Pass Details

Date: 14 June 2018
Orbit: 518 x 531 km, 82.5° (Epoch: 19 August)

Event Time Altitude Azimuth Distance (km) Brightness Sun altitude
Exits shadow 21:38:47 27° 189° (S) 1,037 3.9 -18.0°
Maximum altitude 21:40:50 84° 275° (W) 531 2.7 -18.3°
Drops below altitude 10° 21:44:43 10° 5° (N) 1,762 5.9 -18.9°
Sets 21:46:51 0° 6° (N) 2,652 6.9 -19.2°
